Address 0x1e10fd7d3ea76ee9fb0d1a5cf7ad5e2a49827001 6

Overview

Balance:
6.32049225892151575 GLMR

GLMR Value:
$3.04 (@ $0.48/GLMR)
Txn Hash Method
Block
From
To
Value [Txn Fee]
0xfa106fe44f0600ca6b44f05232bd218e3bdffce5e6b75b1d697148eaf733df9c0xd22b0a587957152022-04-11 9:04:30291 days 15 hrs ago0x1e10fd7d3ea76ee9fb0d1a5cf7ad5e2a49827001OUT 0xfb03f491bf20c38752b40264309c4e0d3678afb60 GLMR0.0063271
0x6c261454ac13d0160781bed0f51425b6abd3c293ae35e9bd4ba6a9304604ae620xd22b0a587952272022-04-11 7:24:54291 days 16 hrs ago0x1e10fd7d3ea76ee9fb0d1a5cf7ad5e2a49827001OUT 0xfb03f491bf20c38752b40264309c4e0d3678afb60 GLMR0.0063251
0x2e2019483d7aa5a6574ddc4354b970608b7dd618246e37e2b6ecd64b2e1f0bde0xd22b0a587938852022-04-11 2:48:54291 days 21 hrs ago0x1e10fd7d3ea76ee9fb0d1a5cf7ad5e2a49827001OUT 0xfb03f491bf20c38752b40264309c4e0d3678afb60 GLMR0.007094343
0xcca6c6cfc3f72767cc11fa6f7da1f6503b59da6daa2f52575e1e39802bc4d08f0xd22b0a587933872022-04-11 1:05:54291 days 23 hrs ago0x1e10fd7d3ea76ee9fb0d1a5cf7ad5e2a49827001OUT 0xfb03f491bf20c38752b40264309c4e0d3678afb60 GLMR0.007065816
0x8a795caac735b45fdea87c12f3db2187287372c57d0fefcc250df3a0f38dc7090xd22b0a587933742022-04-11 1:03:18291 days 23 hrs ago0x1e10fd7d3ea76ee9fb0d1a5cf7ad5e2a49827001OUT 0xfb03f491bf20c38752b40264309c4e0d3678afb60 GLMR0.006136635
0x33d761088f9cf3c31dd28261a5f5a655cecd8cebdba7fe7c8227607272cccf180xd22b0a587931842022-04-11 0:24:06291 days 23 hrs ago0x1e10fd7d3ea76ee9fb0d1a5cf7ad5e2a49827001OUT 0xfb03f491bf20c38752b40264309c4e0d3678afb60 GLMR0.0062902
0x9ea643a6bce2de7e3bdddee3194f0648f58eef48c99293364a8bde397c30a8360xd22b0a587931132022-04-11 0:09:00292 days 6 mins ago0x1e10fd7d3ea76ee9fb0d1a5cf7ad5e2a49827001OUT 0xfb03f491bf20c38752b40264309c4e0d3678afb60 GLMR0.007877781
0x3b892eb1a20fb828f88c43577f3f334ae773c2c4f124b74dbc4cf9d1461670090xd22b0a587930772022-04-11 0:01:24292 days 14 mins ago0x1e10fd7d3ea76ee9fb0d1a5cf7ad5e2a49827001OUT 0xfb03f491bf20c38752b40264309c4e0d3678afb60 GLMR0.0055285
0xf1c3dffad87bde0d6e36edb1ba99df7630b977d512aad831f0fa01071295d4810xd22b0a587927182022-04-10 22:47:30292 days 1 hr ago0x1e10fd7d3ea76ee9fb0d1a5cf7ad5e2a49827001OUT 0xfb03f491bf20c38752b40264309c4e0d3678afb60 GLMR0.006136635
0x11e3dc50741965e6910da5b21bc682c5f40c7721f88ab068514ba2d91ef69c7f0xd22b0a587925112022-04-10 22:03:48292 days 2 hrs ago0x1e10fd7d3ea76ee9fb0d1a5cf7ad5e2a49827001OUT 0xfb03f491bf20c38752b40264309c4e0d3678afb60 GLMR0.007027521
0x0e94fcd97e1ab277963e24ba731b165d0d0560ca3b594cf232d2e9baac98b2e00xd22b0a587922912022-04-10 21:17:48292 days 2 hrs ago0x1e10fd7d3ea76ee9fb0d1a5cf7ad5e2a49827001OUT 0xfb03f491bf20c38752b40264309c4e0d3678afb60 GLMR0.0070935
0x3958dccd9687bc321550a43412c30ae83c9509bb0c2d8614f60586a570d31cd40xd22b0a587922602022-04-10 21:11:18292 days 3 hrs ago0x1e10fd7d3ea76ee9fb0d1a5cf7ad5e2a49827001OUT 0xfb03f491bf20c38752b40264309c4e0d3678afb60 GLMR0.0071192
0x742a241dbfd21af19281b4a6bb32a6574d266479d8e2f94608e16ab9bd7e96fe0xd22b0a587919672022-04-10 20:09:48292 days 4 hrs ago0x1e10fd7d3ea76ee9fb0d1a5cf7ad5e2a49827001OUT 0xfb03f491bf20c38752b40264309c4e0d3678afb60 GLMR0.007064484
0x8efb697ff800208ce291860e1845678a5e797009f5d41ff1222bd71512ada7580xd22b0a587915282022-04-10 18:39:12292 days 5 hrs ago0x1e10fd7d3ea76ee9fb0d1a5cf7ad5e2a49827001OUT 0xfb03f491bf20c38752b40264309c4e0d3678afb60 GLMR0.007060932
0xc691cc99433961eb6411f349f4844ccbca2b97d0fe8a89bb78de3d5ab9e95b620xd22b0a587910212022-04-10 16:53:42292 days 7 hrs ago0x1e10fd7d3ea76ee9fb0d1a5cf7ad5e2a49827001OUT 0xfb03f491bf20c38752b40264309c4e0d3678afb60 GLMR0.007093899
0x0184740e99f6627bff965c86f58deb95aea646170f0a1e925aa53a0e7f7a5a660xd22b0a587902032022-04-10 14:05:12292 days 10 hrs ago0x1e10fd7d3ea76ee9fb0d1a5cf7ad5e2a49827001OUT 0xfb03f491bf20c38752b40264309c4e0d3678afb60 GLMR0.007094343
0xa79fa35885d5a0ed16a48a7b271f0dad7922299416a7e3863fd60d506056a97a0xd22b0a587898782022-04-10 12:58:00292 days 11 hrs ago0x1e10fd7d3ea76ee9fb0d1a5cf7ad5e2a49827001OUT 0xfb03f491bf20c38752b40264309c4e0d3678afb60 GLMR0.008014089
0x485c6e280758eb89d6bd6828bd2447e71cb52973be7f5b54bf0a20d31369b87e0xd22b0a587894712022-04-10 11:34:54292 days 12 hrs ago0x1e10fd7d3ea76ee9fb0d1a5cf7ad5e2a49827001OUT 0xfb03f491bf20c38752b40264309c4e0d3678afb60 GLMR0.007094343
0xdc00050ee4bdd220b5e989a8578cfc4df4d5a4a4dae485b13c9b70b1006fffe50xd22b0a587893862022-04-10 11:17:00292 days 12 hrs ago0x1e10fd7d3ea76ee9fb0d1a5cf7ad5e2a49827001OUT 0xfb03f491bf20c38752b40264309c4e0d3678afb60 GLMR0.007096563
0x4a7611c31318faea9ac8f7fec9848a56025de8c5a5a7f89dc93d0db9e24f6b160xd22b0a587893792022-04-10 11:15:36292 days 13 hrs ago0x1e10fd7d3ea76ee9fb0d1a5cf7ad5e2a49827001OUT 0xfb03f491bf20c38752b40264309c4e0d3678afb60 GLMR0.007096563
0x5fa0c965169e7dad34a699a1fd549af739fbdcfafd953cbb85cba6235428caf30xd22b0a587893392022-04-10 11:07:24292 days 13 hrs ago0x1e10fd7d3ea76ee9fb0d1a5cf7ad5e2a49827001OUT 0xfb03f491bf20c38752b40264309c4e0d3678afb60 GLMR0.00706182
0xd8219b0f2923d495db179fc5c9e3b80f361f3a10c59c42137706f0557aa9b9dd0xd22b0a587893072022-04-10 11:00:24292 days 13 hrs ago0x1e10fd7d3ea76ee9fb0d1a5cf7ad5e2a49827001OUT 0xfb03f491bf20c38752b40264309c4e0d3678afb60 GLMR0.006140631
0xc75f065fab8c7add1dc76e75e2b8f3fcf8885c6d3ed53d55ce13be155e3520b60xd22b0a587888762022-04-10 9:31:18292 days 14 hrs ago0x1e10fd7d3ea76ee9fb0d1a5cf7ad5e2a49827001OUT 0xfb03f491bf20c38752b40264309c4e0d3678afb60 GLMR0.007024857
0x14d7050389efc50a7fce0e26f3c8db7d97ca2accc8593597a53f628cce13f08e0xd22b0a587884782022-04-10 8:08:18292 days 16 hrs ago0x1e10fd7d3ea76ee9fb0d1a5cf7ad5e2a49827001OUT 0xfb03f491bf20c38752b40264309c4e0d3678afb60 GLMR0.007060932
0xe4fa3e3c0ff0a876e064332f595497bba68745deeb9b80de75ec12e8d648b6570xd22b0a587884602022-04-10 8:04:12292 days 16 hrs ago0x1e10fd7d3ea76ee9fb0d1a5cf7ad5e2a49827001OUT 0xfb03f491bf20c38752b40264309c4e0d3678afb60 GLMR0.006140631
[ Download CSV Export 
Latest 8 internal transactions
Parent Txn Hash Block From To Value
0xad7fee35df10063a3c8e6eea77004998e8fafaa85a08f01212e1bc3396b760377054822022-03-29 9:46:42304 days 14 hrs ago 0x2192c38a679d8dafa7cb7f03eef998cc1501b8a80x1e10fd7d3ea76ee9fb0d1a5cf7ad5e2a4982700110 GLMR
0x35199b2b88e5fb57d574ace68f3e286ae6bab341c2d0fb33b2586f2deafa6f8d5086372022-03-01 5:54:06332 days 18 hrs ago 0x2192c38a679d8dafa7cb7f03eef998cc1501b8a80x1e10fd7d3ea76ee9fb0d1a5cf7ad5e2a4982700110 GLMR
0x6c9120146c4d515c7c45acbb0d49ade8f2e1a59a23245f2dae43958d10a377fe2985822022-01-29 16:20:48363 days 7 hrs ago 0x2192c38a679d8dafa7cb7f03eef998cc1501b8a80x1e10fd7d3ea76ee9fb0d1a5cf7ad5e2a4982700110 GLMR
0x167dfe3e177249d8b82c94cb46f9cc3357a2ef9c723461351c3eb9d1119a2b5c2474312022-01-22 8:55:00370 days 15 hrs ago 0x2192c38a679d8dafa7cb7f03eef998cc1501b8a80x1e10fd7d3ea76ee9fb0d1a5cf7ad5e2a498270014 GLMR
0x74db29ff597a8ec80a421c4ed3086ab433cca911e78af975c9ae991603b013812257772022-01-19 6:02:30373 days 18 hrs ago 0x2192c38a679d8dafa7cb7f03eef998cc1501b8a80x1e10fd7d3ea76ee9fb0d1a5cf7ad5e2a498270012 GLMR
0x7b682f78bade28afde2f7739bdef414653765f58237b22bfd2a2ea8dfe74be922150102022-01-17 17:09:18375 days 7 hrs ago 0x2192c38a679d8dafa7cb7f03eef998cc1501b8a80x1e10fd7d3ea76ee9fb0d1a5cf7ad5e2a498270011 GLMR
0x26057929f7fdf3a1cc30f1e0b23d801f277e58af99a7768481ea29ca21a852462039152022-01-16 2:59:48376 days 21 hrs ago 0x2192c38a679d8dafa7cb7f03eef998cc1501b8a80x1e10fd7d3ea76ee9fb0d1a5cf7ad5e2a498270011 GLMR
0x9a7355ae0d81f056d7965babd8360db2db69ae3faac7444e2d5df4f2d3d8569e1989872022-01-15 9:59:12377 days 14 hrs ago 0x2192c38a679d8dafa7cb7f03eef998cc1501b8a80x1e10fd7d3ea76ee9fb0d1a5cf7ad5e2a498270011 GLMR
[ Download CSV Export 
Loading

Contract Name:
0

Compiler Version
0

Optimization Enabled:
0

Other Settings:
-NA-
Block Transaction Gas Used Reward
Age Block Fee Address BC Fee Address Voting Power Jailed Incoming
Block Uncle Number Difficulty Gas Used Reward
Loading
Make sure to use the "Vote Down" button for any spammy posts, and the "Vote Up" for interesting conversations.